ラ・サグラ彗星

C/2012 B3 ( La Sagra )

English version
Home page
Updated on May 3, 2012

---------------------------------------------------------------------

・ プロフィール

発見日 2012年1月29日
発見光度 18.3等
発見者 La Sagra, Spain

・ 写真集

・ 軌道要素

Epoch 2011 Dec. 25.0 TT = JDT 2455920.5
T 2011 Dec. 6.84261 TT                                  MPC
q   3.5365069            (2000.0)            P               Q
z  -0.0003751      Peri.   50.73388     -0.40069855     +0.05010699
 +/-0.0000173      Node   252.99801     -0.78943872     +0.48788675
e   1.0013267      Incl.  106.93230     +0.46500235     +0.87146762
From 179 observations 2012 Jan. 29-Apr. 28, mean residual 0".5.

・ 光度変化

        m1 = 10.0 + 5 logΔ + 10.0 log r

---------------------------------------------------------------------

軌道要素はM.P.E.C. 2012-H90に掲載されたものです。
光度グラフはComet for Windowsで作成したものです。

---------------------------------------------------------------------

Copyright(C) Seiichi Yoshida (comet@aerith.net). All rights reserved.